TimeCST,TemperatureF,Dew PointF,Humidity,Sea Level PressureIn,VisibilityMPH,Wind Direction,Wind SpeedMPH,Gust SpeedMPH,PrecipitationIn,Events,Conditions,WindDirDegrees,DateUTC
12:52 AM,21.0,18.0,88,29.93,7.0,SSE,3.5,-,N/A,,Clear,160,2013-02-13 06:52:00
1:52 AM,21.0,18.0,88,29.92,7.0,South,3.5,-,N/A,,Clear,170,2013-02-13 07:52:00
2:52 AM,21.0,18.0,88,29.90,7.0,South,3.5,-,N/A,,Clear,170,2013-02-13 08:52:00
3:52 AM,19.9,18.0,92,29.87,6.0,SSE,4.6,-,N/A,,Clear,160,2013-02-13 09:52:00
4:52 AM,21.0,18.0,88,29.85,5.0,South,4.6,-,N/A,,Clear,180,2013-02-13 10:52:00
5:52 AM,21.0,18.0,88,29.84,5.0,Calm,Calm,-,N/A,,Clear,0,2013-02-13 11:52:00
6:52 AM,21.0,19.0,92,29.83,4.0,Calm,Calm,-,N/A,,Clear,0,2013-02-13 12:52:00
7:52 AM,25.0,23.0,92,29.83,3.0,South,3.5,-,N/A,,Clear,170,2013-02-13 13:52:00
8:52 AM,30.0,25.0,82,29.82,4.0,SW,6.9,-,N/A,,Haze,230,2013-02-13 14:52:00
9:52 AM,34.0,27.0,75,29.82,6.0,SW,4.6,-,N/A,,Haze,230,2013-02-13 15:52:00
10:52 AM,37.0,27.0,67,29.81,6.0,Variable,4.6,-,N/A,,Haze,0,2013-02-13 16:52:00
11:52 AM,39.9,28.0,63,29.78,7.0,South,5.8,-,N/A,,Clear,190,2013-02-13 17:52:00
12:52 PM,42.1,28.0,58,29.75,-9999.0,North,-9999.0,-,N/A,,Unknown,0,2013-02-13 18:52:00
1:52 PM,44.1,27.0,51,29.74,9.0,SW,10.4,-,N/A,,Unknown,220,2013-02-13 19:52:00
2:52 PM,43.0,28.0,56,29.74,9.0,West,9.2,-,N/A,,Clear,270,2013-02-13 20:52:00
3:52 PM,42.1,30.0,62,29.75,8.0,WSW,8.1,-,N/A,,Clear,250,2013-02-13 21:52:00
4:52 PM,41.0,30.9,67,29.76,8.0,WSW,9.2,-,N/A,,Clear,250,2013-02-13 22:52:00
5:52 PM,39.0,30.0,70,29.77,10.0,WSW,3.5,-,N/A,,Clear,240,2013-02-13 23:52:00
6:52 PM,37.0,30.0,76,29.78,9.0,Calm,Calm,-,N/A,,Clear,0,2013-02-14 00:52:00
7:52 PM,35.1,30.0,82,29.78,8.0,SSW,3.5,-,N/A,,Clear,210,2013-02-14 01:52:00
8:52 PM,36.0,30.0,79,29.78,8.0,SW,3.5,-,N/A,,Overcast,230,2013-02-14 02:52:00
9:52 PM,36.0,30.0,79,29.78,9.0,SW,3.5,-,N/A,,Overcast,220,2013-02-14 03:52:00
10:52 PM,36.0,30.0,79,29.76,9.0,South,3.5,-,N/A,,Overcast,190,2013-02-14 04:52:00
11:52 PM,36.0,30.0,79,29.76,8.0,South,4.6,-,N/A,,Overcast,180,2013-02-14 05:52:00